Change the Weather History Date:

Sunday, September 22, 2013

  Actual Average Record
Temperature  
Mean Temperature 62 °F -  
Max Temperature 68 °F - - ()
Min Temperature 55 °F - - ()
Degree Days  
Heating Degree Days 4    
Growing Degree Days 12 (Base 50)    
Moisture  
Dew Point 38 °F    
Average Humidity 44    
Maximum Humidity 55    
Minimum Humidity 32    
Precipitation  
Precipitation 0.00 in - - ()
Sea Level Pressure  
Sea Level Pressure 30.14 in    
Wind  
Wind Speed 7 mph ()    
Max Wind Speed 13 mph    
Max Gust Speed -    
Visibility 6.2 miles    
Events      
T = Trace of Precipitation, MM = Missing Value Source: Averaged Metar Reports

Daily Weather History Graph

Daily Weather History Graph

Search for Another Location

Airport or City:

Trip Planner

Search our weather history database for the weather conditions in past years. The results will help you decide how hot, cold, wet, or windy it might be!

Date:

Astronomy

Sep. 22, 2013 Rise Set
Actual Time 7:20 AM EEST 7:29 PM EEST
Civil Twilight 6:53 AM EEST 7:56 PM EEST
Nautical Twilight 6:21 AM EEST 8:28 PM EEST
Astronomical Twilight 5:48 AM EEST 9:00 PM EEST
Moon 9:06 PM EEST (9/22) 10:21 AM EEST (9/22)
Length of Visible Light 13h 03m
Length of Day
12h 09m
Waning Gibbous, 90% of the Moon is Illuminated
Sep 22
Waning Gibbous
Sep 27
Last Quarter
Oct 5
New
Oct 12
First Quarter
Oct 19
Full

Hourly Weather History & Observations

Time (EEST) Temp. Dew Point Humidity Pressure Visibility Wind Dir Wind Speed Gust Speed Precip Events Conditions
12:20 AM 60.8 °F 37.4 °F 42% 30.15 in - WSW 6.9 mph - N/A   Unknown
12:50 AM 60.8 °F 37.4 °F 42% 30.15 in - WSW 6.9 mph - N/A   Unknown
1:20 AM 59.0 °F 37.4 °F 45% 30.15 in - WSW 6.9 mph - N/A   Unknown
1:50 AM 59.0 °F 37.4 °F 45% 30.15 in - WSW 8.1 mph - N/A   Unknown
2:20 AM 59.0 °F 37.4 °F 45% 30.15 in - WSW 10.4 mph - N/A   Unknown
2:50 AM 59.0 °F 37.4 °F 45% 30.15 in - WSW 10.4 mph - N/A   Unknown
3:20 AM 57.2 °F 37.4 °F 48% 30.15 in - WSW 10.4 mph - N/A   Unknown
3:50 AM 57.2 °F 39.2 °F 51% 30.15 in - WSW 11.5 mph - N/A   Unknown
4:20 AM 57.2 °F 39.2 °F 51% 30.15 in - WSW 10.4 mph - N/A   Unknown
4:50 AM 57.2 °F 39.2 °F 51% 30.15 in - WSW 10.4 mph - N/A   Unknown
5:20 AM 55.4 °F 39.2 °F 54% 30.15 in - WSW 8.1 mph - N/A   Unknown
5:50 AM 55.4 °F 39.2 °F 54% 30.15 in - WSW 9.2 mph - N/A   Unknown
6:20 AM 55.4 °F 39.2 °F 54% 30.15 in - WSW 10.4 mph - N/A   Unknown
6:50 AM 55.4 °F 39.2 °F 54% 30.15 in - WSW 9.2 mph - N/A   Unknown
7:20 AM 55.4 °F 39.2 °F 54% 30.15 in - WSW 9.2 mph - N/A   Unknown
7:50 AM 55.4 °F 39.2 °F 54% 30.15 in - WSW 11.5 mph - N/A   Unknown
8:20 AM 55.4 °F 39.2 °F 54% 30.18 in - WSW 11.5 mph - N/A   Unknown
8:50 AM 57.2 °F 39.2 °F 51% 30.18 in - WSW 12.7 mph - N/A   Unknown
9:20 AM 57.2 °F 41.0 °F 55% 30.18 in - WSW 10.4 mph - N/A   Unknown
9:50 AM 59.0 °F 41.0 °F 51% 30.18 in - WSW 12.7 mph - N/A   Unknown
10:20 AM 60.8 °F 39.2 °F 45% 30.18 in - WSW 12.7 mph - N/A   Unknown
10:50 AM 62.6 °F 39.2 °F 42% 30.18 in - WSW 10.4 mph - N/A   Unknown
11:20 AM 64.4 °F 39.2 °F 40% 30.18 in - WSW 9.2 mph - N/A   Unknown
11:50 AM 66.2 °F 37.4 °F 35% 30.18 in - WSW 8.1 mph - N/A   Unknown
12:20 PM 66.2 °F 37.4 °F 35% 30.15 in - WSW 5.8 mph - N/A   Unknown
12:50 PM 66.2 °F 37.4 °F 35% 30.15 in 6.2 mi WSW 6.9 mph - N/A   Scattered Clouds
1:50 PM 68.0 °F 37.4 °F 33% 30.15 in 6.2 mi WSW 4.6 mph - N/A   Scattered Clouds
2:50 PM 66.2 °F 37.4 °F 35% 30.12 in 6.2 mi Calm Calm - N/A   Mostly Cloudy
3:50 PM 66.2 °F 37.4 °F 35% 30.12 in 6.2 mi Calm Calm - N/A   Mostly Cloudy
4:50 PM 66.2 °F 35.6 °F 32% 30.09 in 6.2 mi Calm Calm - N/A   Mostly Cloudy
5:50 PM 66.2 °F 35.6 °F 32% 30.09 in 6.2 mi ENE 4.6 mph - N/A   Mostly Cloudy
6:50 PM 64.4 °F 35.6 °F 34% 30.09 in 6.2 mi WSW 4.6 mph - N/A   Mostly Cloudy
7:20 PM 64.4 °F 35.6 °F 34% 30.09 in - WSW 8.1 mph - N/A   Unknown
7:50 PM 62.6 °F 37.4 °F 39% 30.09 in - WSW 5.8 mph - N/A   Unknown
8:20 PM 62.6 °F 35.6 °F 37% 30.12 in - WSW 4.6 mph - N/A   Unknown
8:50 PM 60.8 °F 37.4 °F 42% 30.12 in - WSW 4.6 mph - N/A   Unknown
9:20 PM 60.8 °F 37.4 °F 42% 30.12 in - WSW 5.8 mph - N/A   Unknown
9:50 PM 60.8 °F 37.4 °F 42% 30.12 in - WSW 4.6 mph - N/A   Unknown
10:20 PM 60.8 °F 37.4 °F 42% 30.12 in - WSW 5.8 mph - N/A   Unknown
10:50 PM 60.8 °F 37.4 °F 42% 30.15 in - WSW 5.8 mph - N/A   Unknown
11:20 PM 59.0 °F 37.4 °F 45% 30.15 in - WSW 8.1 mph - N/A   Unknown
11:50 PM 59.0 °F 37.4 °F 45% 30.15 in - WSW 8.1 mph - N/A   Unknown